This demonstration page uses our WeatherBlox Daily Observations layout. Learn more.

Left ArrowRight Arrow

Hourly Observations for July 29, 2022

Temp ( °F °C ) Dew Point ( °F °C ) Humidity (%) Winds ( mph kmh ) Pressure ( in mb ) Visibility ( mi km ) Precip ( " mm )
12:53 am 00:53 Cloudy 58 14.4 54 12.2 87 87 E 3 6 30.07 1018 10 16 0.00 0.00
1:53 am 01:53 Mostly Cloudy 58 14.4 55 12.8 90 90 Calm 30.05 1018 10 16 0.00 0.00
2:53 am 02:53 Mostly Cloudy 58 14.4 54 12.2 87 87 Calm 30.04 1017 10 16 0.00 0.00
3:53 am 03:53 Clear 57 13.9 54 12.2 90 90 ENE 6 9 30.04 1017 10 16 0.00 0.00
4:53 am 04:53 Clear 54 12.2 51 10.6 90 90 Calm 30.07 1018 10 16 0.00 0.00
5:53 am 05:53 Clear 51 10.6 49 9.4 92 92 Calm 30.14 1021 10 16 0.00 0.00
6:53 am 06:53 Partly Cloudy 52 11.1 49 9.4 89 89 Calm 30.15 1021 10 16 0.00 0.00
7:53 am 07:53 Sunny 54 12.2 51 10.6 90 90 Calm 30.16 1022 10 16 0.00 0.00
8:53 am 08:53 Sunny 58 14.4 52 11.1 81 81 Calm 30.16 1022 10 16 0.00 0.00
9:53 am 09:53 Mostly Sunny 61 16.1 54 12.2 78 78 Calm 30.15 1021 10 16 0.00 0.00
10:53 am 10:53 Sunny 66 18.9 54 12.2 65 65 SSE 3 6 30.13 1020 10 16 0.00 0.00
11:53 am 11:53 Sunny 73 22.8 51 10.6 46 46 WNW 3 6 30.10 1019 10 16 0.00 0.00
12:53 pm 12:53 Sunny 76 24.4 45 7.2 33 33 NW 3 6 30.06 1018 10 16 0.00 0.00
1:53 pm 13:53 Sunny 80 26.7 50 10 35 35 WSW 6 9 30.02 1017 10 16 0.00 0.00
2:53 pm 14:53 Sunny 82 27.8 49 9.4 32 32 WSW 7 11 29.98 1015 10 16 0.00 0.00
3:53 pm 15:53 Sunny 84 28.9 45 7.2 25 25 NNW 3 6 29.96 1014 10 16 0.00 0.00
4:53 pm 16:53 Sunny 86 30 47 8.3 26 26 E 3 6 29.94 1014 10 16 0.00 0.00
5:53 pm 17:53 Mostly Cloudy 86 30 47 8.3 26 26 ESE 7 11 29.94 1014 10 16 0.00 0.00
6:53 pm 18:53 Cloudy with Heavy Rain 73 22.8 46 7.8 38 38 VRB 6 9 30.00 1016 2 3 0.15 3.81
7:07 pm 19:07 Cloudy with Light Rain 72 22.2 50 10 46 46 undefined N/A 29.74 1007 10 16 0.03 0.76
7:15 pm 19:15 Cloudy with Nearby Thunderstorms 69 20.6 54 12.2 59 59 ENE 7 11 29.79 1009 7 11 0.05 1.27
7:30 pm 19:30 Cloudy with Light Rain 70 21.1 55 12.8 59 59 ENE 6 9 29.77 1008 10 16 0.05 1.27
7:53 pm 19:53 Mostly Cloudy 72 22.2 53 11.7 52 52 E 7 11 30.00 1016 10 16 0.05 1.27
8:53 pm 20:53 Clear 70 21.1 52 11.1 53 53 ENE 10 17 30.00 1016 10 16 0.00 0.00
9:53 pm 21:53 Clear 66 18.9 52 11.1 61 61 E 6 9 30.02 1017 10 16 0.00 0.00
10:53 pm 22:53 Clear 64 17.8 50 10 60 60 E 3 6 30.02 1017 10 16 0.00 0.00
11:53 pm 23:53 Clear 59 15 51 10.6 75 75 Calm 30.04 1017 10 16 0.00 0.00

Powered by AerisWeather